Weather History for Berlin, NH

Change the Weather History Date:

Monday, July 14, 2014

  Actual Average Record
Temperature  
Mean Temperature 69 °F -  
Max Temperature 84 °F 74 °F 91 °F (2012)
Min Temperature 57 °F 48 °F 44 °F (1999)
Cooling Degree Days 4    
Growing Degree Days 19 (Base 50)    
Moisture  
Dew Point 62 °F    
Average Humidity 87    
Maximum Humidity 100    
Minimum Humidity 48    
Precipitation  
Precipitation 0.06 in - - ()
Sea Level Pressure  
Sea Level Pressure 29.87 in    
Wind  
Wind Speed 1 mph (SSE)    
Max Wind Speed 8 mph    
Max Gust Speed -    
Visibility 6 miles    
Events Fog , Rain    
Averages and records for this station are not official NWS values.
T = Trace of Precipitation, MM = Missing Value Source: NWS Daily Summary

Daily Weather History Graph

Daily Weather History Graph

Search for Another Location

Airport:

Trip Planner

Search our weather history database for the weather conditions in past years. The results will help you decide how hot, cold, wet, or windy it might be!

Date:

Astronomy

Jul. 14, 2014 Rise Set
Actual Time 5:12 AM EDT 8:27 PM EDT
Civil Twilight 4:37 AM EDT 9:03 PM EDT
Nautical Twilight 3:51 AM EDT 9:49 PM EDT
Astronomical Twilight 2:54 AM EDT 10:45 PM EDT
Moon 9:45 PM EDT (7/14) 8:00 AM EDT (7/14)
Length of Visible Light 16h 26m
Length of Day
15h 14m
Waning Gibbous, 93% of the Moon is Illuminated
Jul 14
Waning Gibbous
Jul 18
Last Quarter
Jul 26
New
Aug 3
First Quarter
Aug 10
Full

Hourly Weather History & Observations

Time (EDT) Temp. Heat Index Dew Point Humidity Pressure Visibility Wind Dir Wind Speed Gust Speed Precip Events Conditions
12:50 AM 69.8 °F - 68.0 °F 94% 29.81 in 5.0 mi Calm Calm - 0.00 in Rain Light Rain
12:52 AM 70.0 °F - 68.0 °F 93% 29.80 in 5.0 mi Calm Calm - 0.00 in Rain Light Rain
1:37 AM 70.0 °F - 68.0 °F 93% 29.81 in 4.0 mi Calm Calm - 0.01 in Rain Rain
2:00 AM 68.0 °F - 64.0 °F 87% 29.84 in 4.0 mi Calm Calm - 0.02 in Rain Rain
2:52 AM 66.9 °F - 64.9 °F 93% 29.84 in 10.0 mi South 3.5 mph - 0.03 in   Mostly Cloudy
3:49 AM 62.6 °F - 62.6 °F 100% 29.85 in 1.8 mi Calm Calm - N/A   Partly Cloudy
3:52 AM 62.1 °F - 61.0 °F 96% 29.84 in 1.5 mi Calm Calm - N/A   Partly Cloudy
4:03 AM 63.0 °F - 62.1 °F 97% 29.85 in 1.0 mi Calm Calm - N/A   Mist
4:18 AM 61.0 °F - 60.1 °F 97% 29.85 in 0.2 mi Calm Calm - N/A Fog Fog
4:36 AM 61.0 °F - 61.0 °F 100% 29.86 in 1.2 mi ESE 4.6 mph - N/A   Scattered Clouds
4:38 AM 61.0 °F - 61.0 °F 100% 29.86 in 3.0 mi ESE 4.6 mph - N/A   Scattered Clouds
4:52 AM 62.1 °F - 62.1 °F 100% 29.86 in 3.0 mi Calm Calm - N/A   Partly Cloudy
4:55 AM 61.0 °F - 61.0 °F 100% 29.86 in 1.8 mi Calm Calm - N/A   Partly Cloudy
5:08 AM 60.1 °F - 60.1 °F 100% 29.87 in 0.2 mi Calm Calm - N/A Fog Fog
5:23 AM 59.0 °F - 59.0 °F 100% 29.87 in 0.2 mi Calm Calm - N/A Fog Fog
5:52 AM 59.0 °F - 59.0 °F 100% 29.88 in 0.2 mi Calm Calm - N/A Fog Fog
6:00 AM 57.9 °F - 57.9 °F 100% 29.88 in 0.2 mi Calm Calm - N/A Fog Fog
6:14 AM 60.1 °F - 60.1 °F 100% 29.88 in 1.0 mi Calm Calm - N/A   Mist
6:21 AM 60.1 °F - 60.1 °F 100% 29.88 in 1.5 mi Calm Calm - N/A   Partly Cloudy
6:52 AM 63.0 °F - 63.0 °F 100% 29.88 in 6.0 mi Calm Calm - N/A   Clear
7:52 AM 70.0 °F - 64.9 °F 84% 29.89 in 10.0 mi Calm Calm - N/A   Clear
8:52 AM 73.0 °F - 61.0 °F 66% 29.90 in 10.0 mi North - - N/A   Clear
9:52 AM 75.0 °F - 60.1 °F 60% 29.90 in 10.0 mi Variable 3.5 mph - N/A   Clear
10:52 AM 77.0 °F - 60.1 °F 56% 29.90 in 10.0 mi North - - N/A   Partly Cloudy
11:52 AM 78.1 °F - 60.1 °F 54% 29.90 in 10.0 mi Variable 3.5 mph - N/A   Mostly Cloudy
12:52 PM 81.0 °F 81.6 °F 60.1 °F 49% 29.88 in 10.0 mi WSW 5.8 mph - N/A   Mostly Cloudy
1:52 PM 79.0 °F - 57.9 °F 48% 29.88 in 10.0 mi Variable 4.6 mph - N/A   Mostly Cloudy
3:52 PM 81.0 °F 81.6 °F 60.1 °F 49% 29.86 in 10.0 mi Calm Calm - N/A   Mostly Cloudy
4:52 PM 75.9 °F - 62.1 °F 62% 29.87 in 9.0 mi SW 8.1 mph - 0.00 in Rain Light Rain
5:52 PM 69.1 °F - 63.0 °F 81% 29.89 in 3.0 mi SSE 4.6 mph - 0.01 in Rain Rain
6:52 PM 68.0 °F - 64.9 °F 90% 29.88 in 10.0 mi Variable 3.5 mph - 0.02 in   Scattered Clouds
7:52 PM 66.9 °F - 64.9 °F 93% 29.88 in 10.0 mi Calm Calm - N/A   Scattered Clouds
8:52 PM 66.9 °F - 64.9 °F 93% 29.87 in 9.0 mi Calm Calm - N/A   Partly Cloudy
9:52 PM 66.0 °F - 64.0 °F 93% 29.89 in 9.0 mi Calm Calm - N/A   Overcast
10:52 PM 64.9 °F - 63.0 °F 93% 29.88 in 8.0 mi Calm Calm - N/A   Overcast
11:45 PM 63.0 °F - 62.1 °F 97% 29.89 in 7.0 mi Calm Calm - N/A   Scattered Clouds
11:52 PM 63.0 °F - 62.1 °F 97% 29.88 in 7.0 mi Calm Calm - N/A   Scattered Clouds